SCP
2 2 1 1 1 1 1 1 1 1 1 1 1 1 1 1 2 2 2 2 1 1 1 1 1 1 1 1 1 1 1 1 1 1 1 2 2 2 2 2 2 2 2
2 2 1 1 1 1 1 1 1 1 1 1 1 1 1 2 2 2 2 1 1 1 1 1 1 1 1 1 1 1 1 1 1 1 1 2 2 2 2 2 2 2 2
1 1 1 1 1 1 1 1 1 2 2 2 1 1 1 1 1 1 1 1 1 1 1 1 1 1 1 1 1 1 1 2 1 1 2 2 2 2 2 2 2 2 2
1 1 1 1 1 1 1 1 2 2 2 2 2 1 1 1 1 1 1 1 1 1 1 1 1 1 1 0 0 1 1 1 1 1 2 2 3 3 2 2 2 2 2
1 1 1 1 1 1 1 2 2 2 2 2 1 1 1 1 1 1 1 1 1 1 1 1 1 1 1 0 0 0 1 1 1 1 1 2 2 3 2 2 2 2 2
2 2 1 1 1 1 1 2 2 3 2 2 1 1 1 1 1 1 1 1 1 1 1 1 1 1 1 1 1 1 1 1 1 1 1 1 2 2 2 2 2 2 2
3 2 1 1 1 1 2 2 3 2 2 1 1 1 1 1 1 1 1 1 1 1 1 1 1 1 1 1 1 1 1 1 1 1 1 1 1 2 2 1 1 2 2
3 3 2 1 2 2 2 3 3 2 1 1 1 1 1 1 1 1 1 1 1 1 1 1 1 1 1 1 1 1 1 1 1 1 1 1 1 1 1 1 1 1 1
3 3 2 2 2 2 3 3 2 2 1 1 1 1 1 1 1 1 1 1 1 1 1 1 1 1 1 1 1 1 1 1 1 1 1 1 1 1 1 1 1 1 1
2 2 3 3 2 2 2 2 2 2 1 1 1 1 1 1 1 1 1 2 2 2 2 2 1 1 1 1 1 1 1 1 1 1 1 1 1 1 1 1 1 1 1
2 2 2 3 2 2 2 2 2 2 2 1 1 1 1 1 1 1 1 2 2 2 2 2 2 2 1 1 1 1 1 1 1 1 1 1 1 1 1 1 1 1 1
2 3 3 3 3 2 2 3 2 2 2 2 2 2 2 2 1 1 1 1 1 1 1 2 2 2 2 1 1 1 1 1 1 1 1 1 1 1 1 1 1 1 1
3 3 3 3 3 3 3 3 2 2 2 2 2 2 2 2 1 1 1 1 1 1 1 1 1 1 1 1 1 1 0 0 0 1 1 1 1 1 1 1 1 1 1
3 4 4 4 3 3 2 2 2 2 2 2 2 2 2 2 1 1 1 1 1 1 1 1 1 1 1 1 1 1 1 0 0 0 0 1 1 1 1 1 1 1 1
4 4 4 3 3 3 2 2 1 1 1 2 2 2 2 2 2 1 1 1 1 1 1 1 1 1 1 1 1 1 1 1 0 0 0 0 1 1 1 1 1 1 0
4 4 4 3 3 3 2 2 1 1 1 2 2 2 2 2 2 1 1 1 1 1 1 1 1 1 1 1 1 2 1 1 0 0 0 0 0 0 1 1 1 0 0
4 4 4 3 3 3 3 3 2 1 1 2 1 1 1 2 2 1 1 1 1 1 1 1 1 1 1 2 2 2 2 1 1 0 0 0 0 0 0 0 0 0 0
3 3 3 3 3 3 4 3 2 2 1 1 1 1 1 2 1 1 1 1 2 2 1 1 1 1 2 2 2 2 2 1 1 0 0 0 0 0 0 0 0 0 0
3 3 3 3 3 3 3 3 2 2 1 1 1 1 1 1 1 1 1 1 1 1 1 1 1 1 1 2 2 2 2 2 1 1 0 0 0 0 0 0 0 0 0
2 2 2 2 3 3 3 2 2 1 1 1 1 1 1 1 1 1 1 1 1 1 1 1 1 1 1 2 2 3 2 2 2 1 0 0 0 0 0 0 0 0 0
2 1 1 2 2 2 2 1 1 1 1 1 1 1 1 1 1 1 1 1 1 1 1 1 1 1 1 2 2 2 2 3 3 2 1 1 1 1 0 0 0 0 0
2 2 1 1 1 1 1 1 1 1 1 1 1 1 1 1 1 0 0 0 0 0 1 1 1 1 1 1 1 2 2 4 4 2 1 1 1 1 1 0 0 0 0
2 2 1 1 1 1 0 0 0 1 1 1 1 1 1 1 1 0 0 0 0 0 0 1 1 1 1 1 1 2 3 4 4 3 2 2 1 1 1 0 0 0 0
2 2 1 1 1 1 0 0 0 0 1 1 2 2 2 1 1 1 1 1 1 0 0 0 0 0 1 1 1 2 3 4 3 3 2 2 2 2 1 1 0 0 0
2 2 1 1 1 1 0 0 0 0 1 1 2 2 2 1 1 0 0 1 1 1 0 0 0 0 0 0 1 2 3 3 2 2 2 2 2 2 2 2 1 0 0
2 2 1 1 1 1 0 0 0 0 1 1 2 2 2 1 1 0 0 1 1 1 0 0 0 0 0 0 1 1 2 2 2 2 2 2 2 2 2 2 2 1 0
Wind_Speed
2 2 1 1 1 2 3 2 2 2 2 2 2 2 3 3 3 3 5 8 7 7 6 6 6 5 5 5 5 6 7 7 7 7 7 8 8 7 7 7 6 6 5
1 2 2 2 1 1 1 1 2 2 1 1 2 2 2 3 3 3 3 6 7 6 6 6 5 5 4 4 5 6 6 6 6 6 6 7 8 8 7 7 6 6 5
2 2 2 2 2 2 3 2 3 2 2 2 2 3 2 2 2 3 3 3 5 8 6 5 5 4 4 4 4 5 5 5 5 5 5 6 6 7 7 7 7 7 6
2 2 2 2 2 2 2 3 3 3 2 2 1 1 2 2 3 3 3 4 3 5 8 7 5 5 4 4 4 5 5 5 5 5 5 5 6 6 7 7 7 7 7
3 3 2 2 3 2 2 2 2 2 2 2 2 2 2 2 3 3 3 4 4 4 4 8 8 6 5 5 4 4 5 5 5 5 5 4 5 6 6 7 7 7 7
4 3 3 3 3 2 2 2 2 2 2 2 2 2 2 2 2 3 4 4 4 5 5 5 6 7 8 7 6 5 5 6 5 5 5 5 4 4 5 6 7 8 8
4 3 2 3 3 3 2 3 3 4 3 2 3 2 3 3 3 3 3 3 4 4 5 5 4 4 5 9 8 6 6 6 6 6 6 5 4 4 5 5 6 7 8
4 4 4 3 3 3 3 3 3 3 3 3 3 3 3 4 4 4 4 4 4 4 5 6 5 4 4 4 6 8 6 6 6 6 6 5 5 5 5 6 6 6 6
5 4 4 3 3 4 3 4 4 4 3 3 3 3 3 2 2 4 5 4 4 4 4 4 5 5 5 4 4 7 6 5 6 6 6 6 5 5 5 5 6 6 7
4 4 4 4 4 4 4 5 5 4 4 4 3 3 3 2 3 2 4 4 4 4 4 4 4 5 5 4 3 4 6 5 5 5 5 5 5 6 6 6 6 6 7
4 4 4 4 4 4 4 4 4 5 4 4 3 3 4 3 4 4 3 3 4 4 4 4 3 3 4 4 4 4 6 5 5 5 5 6 6 6 6 6 7 7 7
4 4 4 4 4 4 4 4 5 6 4 4 4 4 4 4 4 4 4 4 3 2 2 2 3 4 4 4 4 4 5 6 6 6 6 6 7 6 7 7 8 8 8
4 4 4 4 4 4 4 5 5 5 5 5 5 4 4 3 3 3 4 3 3 2 3 4 4 3 4 4 3 6 6 7 7 6 6 7 7 7 7 7 8 8 8
3 4 5 5 4 5 5 5 5 5 5 5 6 5 4 4 4 4 4 4 3 3 4 3 3 4 3 3 2 6 5 7 7 7 7 7 7 8 8 8 8 7 7
3 5 5 5 5 5 5 6 5 5 5 6 6 6 5 4 4 4 4 4 4 4 3 3 3 3 3 3 3 4 5 5 6 7 7 7 7 8 8 8 8 8 7
3 5 5 5 6 6 6 6 6 6 6 6 4 4 5 4 4 4 4 4 4 4 4 2 3 3 2 3 3 5 5 5 7 8 8 8 8 8 8 8 9 9 8
4 5 5 5 6 6 6 6 6 6 7 6 6 6 6 5 4 4 4 4 4 4 4 3 3 2 3 5 3 4 5 6 5 9 9 8 8 8 8 9 9 9 9
4 5 5 5 5 5 5 6 6 7 7 7 6 6 6 5 5 5 4 4 4 4 5 5 3 3 4 4 4 5 5 5 4 6 8 9 9 9 9 8 8 8 8
3 4 4 4 4 5 5 5 6 6 6 6 6 7 7 6 6 5 5 5 4 4 4 5 4 3 4 4 4 5 6 4 5 5 8 10 10 9 9 9 9 8 8
3 4 4 4 4 4 5 5 5 5 6 6 6 6 7 7 7 6 6 6 5 5 5 5 4 4 4 4 4 5 4 4 5 4 4 6 8 11 11 10 10 9 9
3 3 3 4 4 4 4 4 5 5 6 6 6 6 7 6 6 6 5 5 6 5 5 5 5 5 4 4 5 4 4 4 4 4 5 5 6 7 8 10 11 10 9
3 3 3 3 4 3 2 2 4 5 5 6 6 6 6 7 6 7 7 6 7 7 7 6 5 5 5 5 4 5 5 5 4 4 5 5 5 5 5 4 6 8 9
3 3 3 3 4 2 3 3 4 5 6 5 6 6 6 5 7 7 8 8 9 9 9 8 7 7 6 5 5 6 5 5 5 3 5 5 5 5 4 3 7 8 9
3 3 3 4 3 2 3 4 5 6 6 6 6 6 7 6 6 6 7 7 8 8 9 9 8 8 7 5 5 6 6 6 6 5 6 6 4 4 4 3 8 9 9
3 3 3 3 3 2 3 5 5 5 5 6 6 6 6 6 5 6 7 7 7 6 7 7 6 6 4 5 5 6 6 6 6 5 5 5 4 4 4 4 5 10 10
3 3 2 3 3 3 3 5 6 5 4 4 4 4 5 5 4 6 7 7 7 6 5 6 7 8 9 9 10 9 8 7 6 5 4 4 4 4 4 4 4 6 7
Wind_Direction
159 155 137 130 155 152 169 167 172 142 169 169 181 171 180 174 167 161 141 151 161 165 168 172 169 169 175 178 176 179 172 170 173 178 181 183 182 183 182 181 185 187 192
153 168 160 158 140 143 128 162 159 159 170 154 185 180 199 178 170 181 161 151 157 167 173 174 174 178 180 178 181 184 177 176 178 186 190 189 191 191 188 186 187 190 195
164 186 171 179 160 149 152 174 162 174 172 175 187 185 188 186 164 181 181 173 168 171 176 176 178 185 191 188 184 187 186 184 178 184 192 192 190 195 199 201 198 199 206
191 203 192 173 169 175 168 168 184 181 169 184 172 183 177 173 185 191 192 192 195 179 174 170 176 188 192 195 194 190 187 187 184 189 192 193 199 205 206 203 208 210 214
197 209 197 160 185 178 179 190 164 189 173 180 181 181 197 188 185 193 204 203 195 197 187 160 170 181 189 196 201 200 196 191 193 197 196 192 202 211 213 210 211 215 217
193 211 190 172 196 186 184 180 169 179 192 192 209 181 203 200 205 201 210 199 194 198 199 191 182 181 189 197 200 207 210 204 203 202 203 201 205 214 216 216 217 218 220
192 201 204 179 201 190 201 194 195 182 191 180 196 191 195 196 203 210 217 215 197 198 203 204 211 203 188 190 194 203 215 218 213 209 207 203 203 214 219 220 224 223 220
202 193 205 206 200 198 199 202 206 213 186 186 221 216 209 185 188 202 210 212 211 206 206 204 210 211 228 207 172 191 211 225 224 216 211 208 208 216 222 226 227 224 221
198 200 201 214 207 216 198 200 202 212 209 192 225 252 247 229 169 176 203 210 211 218 220 209 210 212 221 221 203 189 200 222 229 229 220 214 215 216 219 225 230 229 227
196 198 204 206 212 216 201 206 198 209 218 209 195 236 285 324 266 192 183 190 202 217 228 229 220 208 217 220 199 193 190 208 220 223 224 223 223 220 221 223 231 236 236
191 198 207 206 206 213 208 214 200 216 217 228 216 203 209 216 246 258 221 191 197 203 208 216 227 225 217 219 214 185 173 195 212 223 226 229 232 231 229 230 232 237 240
185 188 199 199 200 204 199 205 210 209 220 225 233 224 219 221 226 237 237 221 217 202 196 216 221 219 220 219 207 149 178 200 210 219 226 229 230 235 237 239 238 239 238
188 184 190 193 195 196 200 205 209 214 209 210 221 229 235 238 250 247 248 242 237 215 205 220 218 218 219 219 195 167 190 197 204 213 223 228 228 232 236 240 243 244 242
195 178 185 188 191 196 200 202 210 209 210 215 223 230 232 228 235 237 245 245 239 230 215 226 222 221 224 228 189 194 202 194 203 210 220 227 229 229 233 238 243 244 244
191 186 189 189 193 198 200 201 209 210 209 217 217 213 226 222 228 232 234 243 251 247 233 209 230 225 228 229 196 223 230 188 205 214 220 224 227 229 232 234 237 238 238
194 195 195 196 198 202 205 210 209 206 212 215 221 220 222 225 221 226 226 232 241 251 259 235 232 237 243 245 203 236 240 197 208 214 217 220 225 228 230 233 236 236 235
192 199 204 204 205 208 212 214 219 209 211 212 213 214 217 227 227 225 225 228 233 233 244 250 239 216 230 252 237 244 238 233 211 199 207 215 224 228 232 234 236 235 234
202 202 209 212 213 213 216 218 219 215 212 213 214 214 216 211 218 232 231 230 229 238 243 243 245 233 230 237 238 247 247 241 237 188 199 213 220 227 231 233 234 233 229
202 206 211 218 220 217 218 222 221 220 219 217 216 218 218 215 220 221 227 229 227 226 236 240 242 245 241 236 237 241 248 252 247 198 198 208 215 221 226 229 231 228 224
207 211 216 224 222 217 215 217 220 223 225 221 217 221 222 220 221 222 224 228 234 234 228 239 240 235 234 229 238 240 239 232 246 238 226 222 212 214 219 222 224 222 222
215 214 218 228 226 221 217 214 217 221 226 227 223 225 226 226 230 229 235 226 223 228 228 231 235 236 233 229 237 242 247 244 237 241 237 233 219 222 212 212 214 215 217
222 225 225 228 231 230 182 218 241 229 226 228 226 227 225 216 212 215 232 240 243 235 235 238 240 239 242 241 247 250 250 249 244 229 246 249 240 236 227 217 182 192 207
222 239 244 238 242 233 174 194 229 243 237 234 230 230 233 220 211 217 211 220 235 246 249 252 251 252 249 247 253 251 252 259 267 255 252 254 244 245 235 191 173 189 202
228 238 251 248 247 231 179 198 220 235 241 239 237 234 234 229 218 219 219 218 222 224 226 230 240 249 251 253 247 252 258 255 252 242 234 251 244 251 251 215 181 193 202
240 242 244 253 248 233 183 201 224 239 237 242 242 240 234 228 208 210 223 226 227 225 220 231 247 254 267 258 257 255 247 248 250 234 227 250 255 256 252 235 195 193 203
239 246 239 251 256 257 187 203 223 238 236 241 243 242 229 229 206 203 224 228 230 230 231 213 221 230 232 230 226 237 250 252 254 251 213 237 253 256 253 236 220 199 203